Regional Weather Roundup
Issued by NWS Wilmington, NC

Home | Current Version | Previous Version | Text Only | Print | Product List | Glossary On
Versions: 1 2 3 4 5 6 7 8 9 10 11 12 13 14 15 16 17 18 19 20 21 22 23 24 25 26 27 28 29 30 31 32 33 34 35 36 37 38 39 40 41 42 43 44 45 46 47 48 49 50
821
ASUS42 KILM 060113
RWRILM
RWRILM
REGIONAL HOURLY WEATHER ROUNDUP
NATIONAL WEATHER SERVICE WILMINGTON NC
800 PM EST FRI FEB 05 2016

NOTE: "FAIR" INDICATES FEW OR NO CLOUDS BELOW 12,000 FEET WITH NO
SIGNIFICANT WEATHER AND/OR OBSTRUCTIONS TO VISIBILITY.

...............WFO WILMINGTON COUNTY WARNING AREA...............

......COASTAL NC AND SC COUNTIES......

CITY           SKY/WX    TMP DP  RH WIND       PRES   REMARKS
WILMINGTON     PTCLDY    40  31  70 NE3       30.36S
N MYRTLE BEACH CLEAR     39  33  79 CALM      30.37R
MYRTLE BEACH   NOT AVBL

......INLAND NC AND SC COUNTIES.......

CITY           SKY/WX    TMP DP  RH WIND       PRES   REMARKS
LUMBERTON      CLEAR     40  30  67 CALM      30.37R
ELIZABETHTOWN  CLEAR     38  31  74 CALM      30.37R
WHITEVILLE     CLEAR     39  33  80 CALM      30.37R
FLORENCE       CLEAR     40  26  57 N5        30.38R
DARLINGTON     CLEAR     37  27  65 N5        30.39R WCI  34
KINGSTREE      FAIR      37  32  81 CALM      30.38R
HARTSVILLE     FAIR      37  23  56 CALM      30.38R
BENNETTSVILLE  FAIR      37  32  81 CALM      30.38R
CONWAY         FAIR      36  32  87 CALM      30.38R
GEORGETOWN     FAIR      41  28  60 CALM      30.38R
MARION         FAIR      37  32  81 CALM      30.39R

....................REST OF NORTH CAROLINA......................

.........EASTERN NC.........

CITY           SKY/WX    TMP DP  RH WIND       PRES   REMARKS
CAPE HATTERAS  CLEAR     42  30  62 N8G20     30.36R
JACKSONVILLE   CLEAR     36  28  75 NW3       30.36F
MOREHEAD CITY  CLEAR     38  31  76 NE6       30.37R WCI  33
KENANSVILLE      N/A     33  31  94 CALM      30.37F
NEW BERN       CLEAR     39  27  62 N6        30.39R WCI  35
ELIZABETH CITY CLEAR     37  28  70 NW5       30.38R WCI  33

.........CENTRAL NC.........

CITY           SKY/WX    TMP DP  RH WIND       PRES   REMARKS
RALEIGH DURHAM PTCLDY    37  22  54 CALM      30.38R
ROCKY MOUNT    CLEAR     33  29  85 CALM      30.38R
ROANOKE RAPIDS NOT AVBL
FAYETTEVILLE   PTCLDY    40  23  50 N6        30.37R
HOFFMAN        CLEAR     34  26  71 N1        30.37R

.........WESTERN NC.........

CITY           SKY/WX    TMP DP  RH WIND       PRES   REMARKS
CHARLOTTE      PTCLDY    38  14  37 NE3       30.37R
GREENSBORO     PTCLDY    38  11  32 N3        30.35R
HICKORY        NOT AVBL
BOONE          NOT AVBL
ASHEVILLE      NOT AVBL

.....................REST OF SOUTH CAROLINA.....................

.........EASTERN SC.........

CITY           SKY/WX    TMP DP  RH WIND       PRES   REMARKS
CHARLESTON     PTCLDY    42  28  57 NW5       30.38R
BEAUFORT MCAS  PTCLDY    44  29  55 NE5       30.38R
HILTON HEAD    CLEAR     48  30  49 N6        30.38R

.........CENTRAL SC.........

CITY           SKY/WX    TMP DP  RH WIND       PRES   REMARKS
COLUMBIA       CLEAR     38  27  64 CALM      30.38R
ORANGEBURG     CLEAR     40  28  62 CALM      30.38R
SUMTER SHAW    CLEAR     39  24  55 NE3       30.36R

.........WESTERN SC.........

CITY           SKY/WX    TMP DP  RH WIND       PRES   REMARKS
GREENVILLE     NOT AVBL
ROCK HILL      CLEAR     37  20  50 CALM      30.38R
ANDERSON       CLEAR     38  20  48 CALM      30.36R
CLEMSON        NOT AVBL
GREENWOOD      CLEAR     36  23  59 CALM      30.39R


...................COASTAL AND OFFSHORE REPORTS..................

................LOCAL PIERS AND NC RESERVE................


STATION/POSITION TIME  SKY/WX   TEMP    WIND        PRES    VSBY
                                AIR SEA DIR/SP/G
                 (UTC)          (F)     (DEG/KT/KT) (MB)    (MI)
JOHNY MRCER PIER NOT AVBL
NC RESRV MASNBRO NOT AVBL
OCEAN CREST PIER NOT AVBL
SPRINGMAID  PIER NOT AVBL


................COASTAL AND OFFSHORE BUOYS................


STATION/POSITION TIME  SKY/WX   TEMP    WIND        PRES    VSBY
                                AIR SEA DIR/SP/G
                 (UTC)          (F)     (DEG/KT/KT) (MB)    (MI)
DIMNDSHOAL 41025 0050               71  360/ 21/ 29 1027.3R
WVE H/P(F/S)=  7/11 SWL H/P/D(F/S/D)=  5/ 40/11

CAPE LOOKOUT     NOT AVBL
ONSLOW BAY 41036 NOT AVBL
ONSLOW BAY 41064 0008            48 65              1026.6R
ONSLOW BAY 41159 0025               65                N/A
WVE H/P(F/S)=  4/ 9 SWL H/P/D(F/S/D)=  2/110/11

5SE WRITBC 41038 0008            47 54   20/ 14/ 17 1027.7R
MASNBO INL 41110 0006               55                N/A
WVE H/P(F/S)=  2/ 8

WILM HARBR 41108 0026               60                N/A
WVE H/P(F/S)=  2/ 8

27SE WRITB 41037 0008            49     360/ 14/ 23 1026.4
FRYING PAN 41013 0100            50 69   10/ 14/ 19 1027.7R
SUNST NRSH 41024 NOT AVBL
CAPRS NRSH 41029 0008            50      10/ 12/ 16 1026.9R
EDISTO     41004 0050            51 67   20/ 14/ 19 1027.5R
WVE H/P(F/S)=  4/ 6 SWL H/P/D(F/S/D)=  2/ 7



..........OFFSHORE BUOYS BEYOND 100 NM OFFSHORE...........
.....IN A TRIANGLE---HAT TO BERMUDA TO BAHAMAS TO HAT.....


STATION/POSITION TIME  SKY/WX   TEMP    WIND        PRES    VSBY
                                AIR SEA DIR/SP/G
                 (UTC)          (F)     (DEG/KT/KT) (MB)    (MI)
150E HAT   41001 0000            56 73  350/ 23/ 31 1023.0R
W BERMUDA  41048 0050            66 70  340/ 23/ 27 1019.1R
WVE H/P(F/S)=  6/10 SWL H/P/D(F/S/D)=  3/110/10

ATLANTIC S 41049 0050            74 74  140/ 10/ 12 1019.2R
WVE H/P(F/S)=  9/ 9 SWL H/P/D(F/S/D)=  8/ 70/ 9

E BAHAMAS  41046 0050            77 79  110/  8/ 12 1017.0R
WVE H/P(F/S)=  8/11 SWL H/P/D(F/S/D)=  8/ 60/11

NE BAHAMAS 41047 0050            74 76   20/ 10/ 12 1019.1R
WVE H/P(F/S)=  8/10 SWL H/P/D(F/S/D)=  7/100/10

120E CANVRL41010 0020            65 73              1022.8R

END




USA.gov is the U.S. government's official web portal to all federal, state and local government web resources and services.